רגע לפני שאתם עוזבים...
יש לנו ב
הצעה מיוחד עבורכם!
מספר שירותים שכדאי שתכירו
| לוחית | שעת חיפוש | ||||
| 25887703 | ב מ וו ארהב" | X6 XDRIVE 40I | 2022 | 29/08/2026 | 12:21:50 |
| 56875902 | אאודי גרמניה | A3 SPORTBACK | 2021 | 29/08/2026 | 12:21:50 |
| 4342654 | פולקסווגן גרמניה | GOLF | 2015 | 29/08/2026 | 12:21:49 |
| 2402973 | יונדאי קוריאה הדרומית | IX35 | 2010 | 29/08/2026 | 12:21:49 |
| 60626801 | מזדה יפן | MAZDA 6 | 2019 | 29/08/2026 | 12:21:49 |
| 62634201 | סקודה צ'כיה | KODIAQ | 2018 | 29/08/2026 | 12:21:47 |
| 2035132 | מרצדס גרמניה | S500 LONG | 2015 | 29/08/2026 | 12:21:46 |
| 18663403 | ג'יפ ארהב" | GRAND CHEROKEE | 2023 | 29/08/2026 | 12:21:46 |
| 1202911 | יונדאי קוריאה הדרומית | I35 | 2013 | 29/08/2026 | 12:21:45 |
| 8179326 | רנו טורקיה | FLUENCE | 2016 | 29/08/2026 | 12:21:43 |
| 66889004 | זיקר סין | ZEEKR 7X | 2026 | 29/08/2026 | 12:21:42 |
| 93518201 | מרצדס גרמניה | E200D | 2019 | 29/08/2026 | 12:21:41 |
| 4219466 | מיצובישי יפן | LANCER | 2008 | 29/08/2026 | 12:21:37 |
| 4986767 | דייהטסו יפן | .SIRION | 2008 | 29/08/2026 | 12:21:36 |
| 7703014 | טויוטה יפן | LAND CRUISER | 2006 | 29/08/2026 | 12:21:36 |
| 1631331 | מרצדס גרמניה | E300 | 2014 | 29/08/2026 | 12:21:36 |
| 9354213 | איסוזו תאילנד | PICK-UP | 2013 | 29/08/2026 | 12:21:35 |
| 7292066 | טויוטה יפן | COROLLA | 2008 | 29/08/2026 | 12:21:33 |
| 52590202 | טויוטה ספרד | TOYOTA CITY | 2021 | 29/08/2026 | 12:21:31 |
| 3769439 | שברולט קוריאה הדרומית | SPARK | 2016 | 29/08/2026 | 12:21:30 |
| 63542302 | יונדאי קוריאה הדרומית | SONATA HYBRID | 2022 | 29/08/2026 | 12:21:28 |
| 37934003 | גולדן דרגון סי | - | 2024 | 29/08/2026 | 12:21:27 |
| 19540201 | דאצ'יה רומניה | DUSTER | 2018 | 29/08/2026 | 12:21:25 |
| 23377603 | סקודה צ'כיה | SCALA | 2022 | 29/08/2026 | 12:21:25 |
| 43372703 | ג'יפ ארהב" | WRANGLER | 2023 | 29/08/2026 | 12:21:21 |
| 21530501 | דאצ'יה רומניה | SANDERO | 2018 | 29/08/2026 | 12:21:20 |
| 3351969 | מזדה יפן | MAZDA 3 | 2009 | 29/08/2026 | 12:21:20 |
| 3499850 | סיטרואן ספרד | BERLINGO | 2003 | 29/08/2026 | 12:21:19 |
| 79457101 | סיטרואן פורטוגל | BERLINGO | 2020 | 29/08/2026 | 12:21:17 |
| 27571503 | קיה קוריאה הדרומית | NIRO PLUS EV | 2023 | 29/08/2026 | 12:21:15 |
| 85498702 | סיאט ספרד | FORMENTOR VZ EH | 2022 | 29/08/2026 | 12:21:15 |
| 80300102 | קאדילאק ארהב" | XT4 | 2022 | 29/08/2026 | 12:21:14 |
| 5266672 | ביואיק ארהב" | LACROSSE | 2010 | 29/08/2026 | 12:21:13 |
| 5654551 | הונדה טורקיה | CIVIC | 2004 | 29/08/2026 | 12:21:11 |
| 4220373 | סיטרואן צרפת | C5 | 2010 | 29/08/2026 | 12:21:10 |
| 93518201 | מרצדס גרמניה | E200D | 2019 | 29/08/2026 | 12:21:09 |
| 40301101 | סובארו יפן | IMPREZA | 2018 | 29/08/2026 | 12:21:09 |
| 68129504 | מרצדס בנץ גרמנ | - | 2026 | 29/08/2026 | 12:21:09 |
| 2971475 | שברולט ארהב" | - | 2011 | 29/08/2026 | 12:21:07 |
| 62470203 | יונדאי קוריאה הדרומית | ELANTRA HEV | 2024 | 29/08/2026 | 12:21:07 |
| 36388901 | סיאט ספרד | IBIZA | 2018 | 29/08/2026 | 12:21:05 |
| 32287503 | רנו טורקיה | MEGANE | 2023 | 29/08/2026 | 12:21:03 |
| 6622830 | טויוטה בריטניה | AURIS HYBRID | 2014 | 29/08/2026 | 12:21:01 |
| 1159037 | לקסוס יפן | LEXUS IS300H | 2016 | 29/08/2026 | 12:21:00 |
| 83212703 | סובארו יפן | FORESTER | 2024 | 29/08/2026 | 12:21:00 |
| 5143886 | מרוטי סוזוקי הודו | BALENO | 2017 | 29/08/2026 | 12:20:59 |
| 1893963 | יונדאי קוריאה | GETZ | 2008 | 29/08/2026 | 12:20:58 |
| 41336303 | טויוטה טורקיה | COROLLA | 2023 | 29/08/2026 | 12:20:57 |
| 70377501 | די.אף.אס.קיי סין | C32 | 2019 | 29/08/2026 | 12:20:55 |
| 1858128 | סוזוקי-יפן | - | 2018 | 29/08/2026 | 12:20:55 |
| 85011703 | קיה קוריאה הדרומית | NIRO HEV | 2024 | 29/08/2026 | 12:20:50 |
| 74604002 | פיאט איטליה | FIAT500 | 2022 | 29/08/2026 | 12:20:50 |
| 8929238 | קיה קוריאה הדרומית | PICANTO | 2016 | 29/08/2026 | 12:20:50 |
| 8849374 | סיטרואן צרפת | JUMPY HDI | 2011 | 29/08/2026 | 12:20:42 |
| 29802101 | פורד ספרד | KUGA | 2018 | 29/08/2026 | 12:20:35 |
| 77885303 | מיצובישי יפן | OUTLANDER | 2024 | 29/08/2026 | 12:20:30 |
| 19664501 | ניסאן יפן | X-TRAIL | 2018 | 29/08/2026 | 12:20:27 |
| 93559501 | ב מ וו ארהב" | - | 2013 | 29/08/2026 | 12:20:25 |
| 1129214 | ניסאן בריטניה | ALMERA | 2006 | 29/08/2026 | 12:20:17 |
| 45234304 | סקודה צ'כיה | SCALA FL | 2025 | 29/08/2026 | 12:20:12 |
| 7703014 | טויוטה יפן | LAND CRUISER | 2006 | 29/08/2026 | 12:20:02 |
| 83430002 | סיאט ספרד | IBIZA | 2022 | 29/08/2026 | 12:20:02 |
| 78480801 | הונדה בריטניה | CIVIC 5D | 2020 | 29/08/2026 | 12:19:59 |
| 48283203 | יונדאי טורקיה | I20 | 2023 | 29/08/2026 | 12:19:54 |
| 4986767 | דייהטסו יפן | .SIRION | 2008 | 29/08/2026 | 12:19:53 |
| 66208801 | סקודה צ'כיה | OCTAVIA | 2019 | 29/08/2026 | 12:19:45 |
| 1423538 | סקודה צ'כיה | YETI | 2016 | 29/08/2026 | 12:19:40 |
| 67512004 | ב מ וו גרמניה | M4 COMPETITION | 2026 | 29/08/2026 | 12:19:38 |
| 3303763 | סובארו יפן | IMPREZA B3 | 2008 | 29/08/2026 | 12:19:36 |
| 7783014 | טויוטה בריטניה | COROLLA RUNX | 2006 | 29/08/2026 | 12:19:36 |
| 2615037 | טויוטה יפן | PRIUS PLUS | 2016 | 29/08/2026 | 12:19:35 |
| 60626801 | מזדה יפן | MAZDA 6 | 2019 | 29/08/2026 | 12:19:32 |
| 22427702 | טויוטה תאילנד | HILUX | 2020 | 29/08/2026 | 12:19:30 |
| 68505502 | איווייס סין | U5 | 2021 | 29/08/2026 | 12:19:26 |
| 2843862 | דייהטסו יפן | .SIRION | 2007 | 29/08/2026 | 12:19:25 |
| 1912539 | סובארו יפן | XV | 2016 | 29/08/2026 | 12:19:20 |
| 9353703 | סובארו יפן | - | 1993 | 29/08/2026 | 12:19:13 |
| 10609201 | טויוטה טורקיה | COROLLA | 2017 | 29/08/2026 | 12:19:11 |
| 53768704 | ב מ וו גרמניה | 430I XDRIVE | 2026 | 29/08/2026 | 12:19:11 |
| 9883972 | טויוטה ארהב" | - | 2010 | 29/08/2026 | 12:19:10 |
| 1803930 | מזדה יפן | MAZDA 3 | 2016 | 29/08/2026 | 12:19:10 |
| 8772134 | פיג'ו סלובקיה | 208 | 2016 | 29/08/2026 | 12:19:05 |
| 19126501 | ניסאן בריטניה | QASHQAI | 2017 | 29/08/2026 | 12:19:05 |
| 67512004 | ב מ וו גרמניה | M4 COMPETITION | 2026 | 29/08/2026 | 12:19:04 |
| 67114802 | ב מ וו גרמניה | 530E XDRIVE | 2021 | 29/08/2026 | 12:19:01 |
| 9451536 | מזדה יפן | LANTIS-323 | 2002 | 29/08/2026 | 12:19:00 |
| 9760286 | וולבו בלגיה | - | 2017 | 29/08/2026 | 12:18:59 |
| 5657823 | מרצדס גרמניה | CLK 320 | 2000 | 29/08/2026 | 12:18:57 |
| 7783014 | טויוטה בריטניה | COROLLA RUNX | 2006 | 29/08/2026 | 12:18:55 |
| 56444102 | יונדאי טורקיה | I10 | 2021 | 29/08/2026 | 12:18:55 |
| 1115061 | שברולט קוריאה הדרומית | AVEO | 2007 | 29/08/2026 | 12:18:55 |
| 76198602 | מיצובישי תאילנד | SPACE STAR | 2022 | 29/08/2026 | 12:18:53 |
| 1171710 | טויוטה יפן | HILUX | 2001 | 29/08/2026 | 12:18:50 |
| 50578704 | טויוטה תאילנד | HILUX | 2026 | 29/08/2026 | 12:18:49 |
| 2542063 | איסוזו תאילנד | PICK-UP | 2008 | 29/08/2026 | 12:18:46 |
| 56581701 | ימהה צרפת | - | 2018 | 29/08/2026 | 12:18:45 |
| 3303763 | סובארו יפן | IMPREZA B3 | 2008 | 29/08/2026 | 12:18:44 |
| 18076502 | טויוטה טורקיה | TOYOTA C-HR | 2020 | 29/08/2026 | 12:18:41 |
| 18670603 | ב מ וו גרמניה | M4 XDRIVE | 2022 | 29/08/2026 | 12:18:40 |
| 9356373 | פורשה גרמניה | - | 2011 | 29/08/2026 | 12:18:40 |
| 9405062 | סיאט ספרד | LEON | 2007 | 29/08/2026 | 12:18:38 |
| 46853902 | יונדאי טורקיה | I10 | 2021 | 29/08/2026 | 12:18:29 |
| 4601239 | סיטרואן ספרד | BERLINGO | 2016 | 29/08/2026 | 12:18:25 |
| 77922401 | יונדאי צ'כיה | TUCSON | 2019 | 29/08/2026 | 12:18:25 |
| 1187933 | פיאט איטליה | - | 2015 | 29/08/2026 | 12:18:24 |
| 43010102 | טויוטה תאילנד | HILUX | 2021 | 29/08/2026 | 12:18:23 |
| 43987504 | אאודי גרמניה | Q2 | 2025 | 29/08/2026 | 12:18:22 |
| 1533267 | פיאט פולין | FIAT 500 1.2 | 2010 | 29/08/2026 | 12:18:18 |
| 92113101 | מרצדס גרמניה | C220 BLUETEC | 2015 | 29/08/2026 | 12:18:18 |
| 32585902 | טויוטה טורקיה | COROLLA HSD SDN | 2020 | 29/08/2026 | 12:18:17 |
| 83960402 | פולקסווגן גרמניה | GOLF | 2022 | 29/08/2026 | 12:18:17 |
| 41284704 | גילי סין | EX5 | 2025 | 29/08/2026 | 12:18:16 |
| 5817674 | סוזוקי יפן | SX4 | 2011 | 29/08/2026 | 12:18:14 |
| 32585902 | טויוטה טורקיה | COROLLA HSD SDN | 2020 | 29/08/2026 | 12:18:13 |
| 25683203 | יונדאי צ'כיה | TUCSON | 2023 | 29/08/2026 | 12:18:10 |
| 36475403 | בי ווי די סין | ATTO 3 | 2023 | 29/08/2026 | 12:18:09 |
| 36874002 | סובארו יפן | FORESTER | 2021 | 29/08/2026 | 12:18:05 |
| 81159404 | ג'אקו סין | JAECOO7 PHEV | 2026 | 29/08/2026 | 12:18:02 |
| 6285426 | סקודה צ'כיה | SUPERB FL | 2021 | 29/08/2026 | 12:18:02 |
| 81159404 | ג'אקו סין | JAECOO7 PHEV | 2026 | 29/08/2026 | 12:18:01 |
| 8786357 | טויוטה טורקיה | COROLLA | 2004 | 29/08/2026 | 12:18:00 |
| 37620604 | ב מ וו ארהב" | X4 XDRIVE20I | 2025 | 29/08/2026 | 12:17:59 |
| 37620604 | ב מ וו ארהב" | X4 XDRIVE20I | 2025 | 29/08/2026 | 12:17:59 |
| 37620604 | ב מ וו ארהב" | X4 XDRIVE20I | 2025 | 29/08/2026 | 12:17:59 |
| 15790803 | יונדאי קוריאה הדרומית | ELANTRA HEV | 2022 | 29/08/2026 | 12:17:56 |
| 52749703 | פיג'ו צרפת | 5008 | 2024 | 29/08/2026 | 12:17:54 |
| 2212475 | אופל ספרד | CORSA | 2011 | 29/08/2026 | 12:17:52 |
| 31635903 | וולבו בלגיה | - | 2024 | 29/08/2026 | 12:17:52 |
| 7263431 | קיה קוריאה הדרומית | PICANTO | 2014 | 29/08/2026 | 12:17:51 |
| 3839081 | גון-דיר ארהב" | - | 1997 | 29/08/2026 | 12:17:51 |
| 5871658 | סוזוקי הונגריה | SX4 | 2014 | 29/08/2026 | 12:17:50 |
| 73797503 | מ.ג סין | ZS EV | 2024 | 29/08/2026 | 12:17:48 |
| 72542902 | וולבו בלגיה | - | 2022 | 29/08/2026 | 12:17:47 |
| 31839402 | סקודה צ'כיה | KODIAQ | 2020 | 29/08/2026 | 12:17:46 |
| 1533267 | פיאט פולין | FIAT 500 1.2 | 2010 | 29/08/2026 | 12:17:46 |
| 1336971 | פולקסווגן מקסיקה | JETTA | 2010 | 29/08/2026 | 12:17:46 |
| 13476803 | פיג'ו ספרד | 2008 | 2022 | 29/08/2026 | 12:17:45 |
| 1117171 | פולקסווגן גרמניה | GOLF | 2010 | 29/08/2026 | 12:17:45 |
| 1533267 | פיאט פולין | FIAT 500 1.2 | 2010 | 29/08/2026 | 12:17:45 |
| 9308301 | מאן פולין | - | 2019 | 29/08/2026 | 12:17:44 |
| 2828332 | שברולט קוריאה הדרומית | SONIC | 2014 | 29/08/2026 | 12:17:44 |
| 8155572 | ניסאן יפן | INFINITI | 2010 | 29/08/2026 | 12:17:43 |
| 2624963 | שברולט ארהב" | MALIBU LT | 2007 | 29/08/2026 | 12:17:42 |
| 37620604 | ב מ וו ארהב" | X4 XDRIVE20I | 2025 | 29/08/2026 | 12:17:41 |
| 52744702 | לקסוס יפן | LEXUS IS300 | 2021 | 29/08/2026 | 12:17:41 |
| 5249353 | אאודי גרמניה | A7 | 2014 | 29/08/2026 | 12:17:41 |
| 37620604 | ב מ וו ארהב" | X4 XDRIVE20I | 2025 | 29/08/2026 | 12:17:41 |
| 6454112 | יונדאי טורקיה | I20 | 2012 | 29/08/2026 | 12:17:40 |
| 41284704 | גילי סין | EX5 | 2025 | 29/08/2026 | 12:17:38 |
| 73001702 | וולבו שבדיה | XC90 B5P | 2023 | 29/08/2026 | 12:17:38 |
| 8155572 | ניסאן יפן | INFINITI | 2010 | 29/08/2026 | 12:17:36 |
| 1533267 | פיאט פולין | FIAT 500 1.2 | 2010 | 29/08/2026 | 12:17:36 |
| 6862911 | מזדה יפן | MAZDA 3 | 2014 | 29/08/2026 | 12:17:31 |
| 17273401 | מרצדס בנץ גרמנ | - | 2018 | 29/08/2026 | 12:17:30 |
| 62527901 | סיאט צ'כיה | ATECA | 2018 | 29/08/2026 | 12:17:25 |
| 19319103 | יונדאי הודו | ACCENT | 2023 | 29/08/2026 | 12:17:23 |
| 1511259 | סובארו יפן | FORESTER | 2014 | 29/08/2026 | 12:17:20 |
| 1533267 | פיאט פולין | FIAT 500 1.2 | 2010 | 29/08/2026 | 12:17:16 |
| 68131303 | קיה סלובקיה | CEED | 2024 | 29/08/2026 | 12:17:15 |
| 41284704 | גילי סין | EX5 | 2025 | 29/08/2026 | 12:17:14 |
| 11912503 | יונדאי טורקיה | I10 | 2022 | 29/08/2026 | 12:17:10 |
| 19227201 | ניסאן יפן | X-TRAIL | 2018 | 29/08/2026 | 12:17:08 |
| 9099979 | מרצדס בנץ גרמנ | - | 2015 | 29/08/2026 | 12:17:04 |
| 67241302 | שברולט ארהב" | CORVETTE STINGR | 2021 | 29/08/2026 | 12:16:55 |
| 1977132 | מיצובישי תאילנד | SPACE STAR | 2015 | 29/08/2026 | 12:16:53 |
| 3903172 | שברולט ארהב" | TRAVERSE | 2010 | 29/08/2026 | 12:16:53 |
| 37620604 | ב מ וו ארהב" | X4 XDRIVE20I | 2025 | 29/08/2026 | 12:16:53 |
| 32585902 | טויוטה טורקיה | COROLLA HSD SDN | 2020 | 29/08/2026 | 12:16:52 |
| 35309302 | וולבו בלגיה | - | 2021 | 29/08/2026 | 12:16:45 |
| 62768203 | יונדאי קוריאה הדרומית | ELANTRA HEV | 2024 | 29/08/2026 | 12:16:45 |
| 5920931 | הונדה בריטניה | CR-V | 2015 | 29/08/2026 | 12:16:42 |
| 8155572 | ניסאן יפן | INFINITI | 2010 | 29/08/2026 | 12:16:42 |
| 35716803 | קיה קוריאה הדרומית | RIO | 2023 | 29/08/2026 | 12:16:40 |
| 21548601 | ניסאן בריטניה | QASHQAI | 2018 | 29/08/2026 | 12:16:37 |
| 67754901 | מרצדס גרמניה | AMG GT63 4MATIC | 2019 | 29/08/2026 | 12:16:37 |
| 84535702 | פיג'ו צרפת | 5008 | 2022 | 29/08/2026 | 12:16:33 |
| 14777304 | ב מ וו ארהב" | XM 50E | 2026 | 29/08/2026 | 12:16:29 |
| 14777304 | ב מ וו ארהב" | XM 50E | 2026 | 29/08/2026 | 12:16:28 |
| 14777304 | ב מ וו ארהב" | XM 50E | 2026 | 29/08/2026 | 12:16:22 |
| 14777304 | ב מ וו ארהב" | XM 50E | 2026 | 29/08/2026 | 12:16:22 |
| 82111203 | נגררי עירון | - | 2024 | 29/08/2026 | 12:16:22 |
| 12200203 | ניסאן מקסיקו | INFINITI QX50 | 2022 | 29/08/2026 | 12:16:20 |
| 55031501 | מרצדס גרמניה | C43 AMG | 2019 | 29/08/2026 | 12:16:17 |
| 6593762 | טויוטה יפן | COROLLA | 2007 | 29/08/2026 | 12:16:14 |
| 37620604 | ב מ וו ארהב" | X4 XDRIVE20I | 2025 | 29/08/2026 | 12:16:10 |
| 37620604 | ב מ וו ארהב" | X4 XDRIVE20I | 2025 | 29/08/2026 | 12:16:10 |
| 55771401 | יונדאי טורקיה | I20 | 2019 | 29/08/2026 | 12:16:10 |
| 37620604 | ב מ וו ארהב" | X4 XDRIVE20I | 2025 | 29/08/2026 | 12:16:08 |
| 27645101 | פולקסווגן ארהב" | ATLAS CROSS SPO | 2021 | 29/08/2026 | 12:16:06 |
| 37620604 | ב מ וו ארהב" | X4 XDRIVE20I | 2025 | 29/08/2026 | 12:16:05 |
| 57581603 | מרצדס גרמניה | GLA180 | 2024 | 29/08/2026 | 12:16:04 |
| 22335202 | טויוטה יפן | LAND CRUISER | 2020 | 29/08/2026 | 12:16:02 |
| 24463903 | מזדה יפן | MAZDA CX-3 | 2022 | 29/08/2026 | 12:16:02 |
| 8129371 | טויוטה יפן | COROLLA | 2010 | 29/08/2026 | 12:16:00 |
| 6398954 | מזדה יפן | CX5 | 2014 | 29/08/2026 | 12:15:59 |
| 28131702 | פולקסווגן גרמניה | CARAVELLE | 2020 | 29/08/2026 | 12:15:58 |
| 6450586 | טויוטה טורקיה | C-HR HYBRID | 2017 | 29/08/2026 | 12:15:50 |
| 54253604 | סקודה צ'כיה | SCALA FL | 2026 | 29/08/2026 | 12:15:49 |
| 5154757 | הונדה יפן | ACCORD | 2004 | 29/08/2026 | 12:15:41 |
| 32226003 | פורד ארהב" | MUSTANG | 2022 | 29/08/2026 | 12:15:41 |